• Join FlightAware (Why Join?)
  • Login
  • US Flag 
04:20AM EDT


 

Airport Tracker/Info


-or-


 

Live Flight TrackerFlight Track Log ✈ UAL4476 ✈ 12-Apr-2013 ✈ KCLE - KBOS

Flight Track Log - Related Links

Times and Time Zones

All times are in EDT time to prevent confusion due to time zone crossing. See the UAL4476 flight status page for this flight to view local times or setup timezone preferences in your user account.

Time Position Orientation Groundspeed Altitude Reporting Facility
EDT Latitude Longitude Course Direction KTS MPH feet Rate Location/Type
08:52AM 41.3961 -81.8758 263° West 152 175 1,800  Level Cleveland Center
08:53AM 41.3911 -81.9339 263° West 210 242 3,500 1,860 Climbing Cleveland Center
08:54AM 41.4011 -81.9894 284° West 260 299 5,200 2,160 Climbing Cleveland Center
08:55AM 41.4722 -81.9661 14° North 170 196 7,500 2,220 Climbing Cleveland Center
08:56AM 41.5294 -81.8756 50° Northeast 252 290 9,700 1,920 Climbing Cleveland Center
08:57AM 41.5911 -81.7797 49° Northeast 295 339 11,400 1,620 Climbing Cleveland Center
08:58AM 41.6194 -81.6525 73° East 328 377 13,000 1,560 Climbing Cleveland Center
08:59AM 41.6478 -81.5167 74° East 365 420 14,600 1,800 Climbing Cleveland Center
09:00AM 41.6736 -81.3836 75° East 376 433 16,700 1,980 Climbing Cleveland Center
09:01AM 41.6953 -81.2672 76° East 371 427 18,600 1,440 Climbing Cleveland Center
09:02AM 41.7211 -81.1339 75° East 366 421 19,600 1,020 Climbing Cleveland Center
09:03AM 41.7486 -80.9922 75° East 380 437 20,700 1,020 Climbing Cleveland Center
09:04AM 41.7783 -80.8419 75° East 402 463 21,700 1,140 Climbing Cleveland Center
09:05AM 41.8078 -80.6889 75° East 419 482 23,000 1,440 Climbing Cleveland Center
09:06AM 41.8411 -80.5247 75° East 426 490 24,600 1,680 Climbing Cleveland Center
09:07AM 41.8847 -80.3767 68° East 421 484 26,500 1,740 Climbing Cleveland Center
09:08AM 41.9261 -80.2342 69° East 421 484 28,200 1,380 Climbing Cleveland Center
09:09AM 41.9506 -80.0889 77° East 408 470 29,300 900 Climbing Cleveland Center
09:10AM 41.9750 -79.9519 76° East 402 463 30,000 360 Climbing Cleveland Center
09:11AM 42.0053 -79.7867 76° East 421 484 30,100 900 Climbing Cleveland Center
09:12AM 42.0308 -79.6158 79° East 442 509 31,900 1,860 Climbing Cleveland Center
09:13AM 42.0586 -79.4589 77° East 447 514 33,900 1,560 Climbing Cleveland Center
09:14AM 42.0864 -79.3044 76° East 435 501 35,000 720 Climbing Cleveland Center
09:15AM 42.1114 -79.1444 78° East 429 494 35,400 840 Climbing Cleveland Center
09:16AM 42.1386 -78.9844 77° East 435 501 36,700 780 Climbing Cleveland Center
09:17AM 42.1653 -78.8211 78° East 435 501 37,000 120 Climbing Cleveland Center
09:18AM 42.1958 -78.6353 77° East 443 510 37,000  Level Cleveland Center
09:19AM 42.2219 -78.4606 79° East 455 524 37,000  Level Cleveland Center
09:20AM 42.2517 -78.2831 77° East 466 536 37,000  Level Cleveland Center
09:21AM 42.2794 -78.1078 78° East 473 544 37,000  Level Cleveland Center
09:22AM 42.3067 -77.9328 78° East 473 544 37,000  Level Cleveland Center
09:23AM 42.3317 -77.7547 79° East 473 544 37,000  Level Cleveland Center
09:24AM 42.3586 -77.5822 78° East 473 544 37,000  Level Cleveland Center
09:26AM 42.4158 -77.1881 79° East 468 539 37,000  Level Boston Center
09:27AM 42.4417 -77.0128 79° East 474 545 37,000  Level Boston Center
09:28AM 42.4586 -76.8506 82° East 479 551 37,000  Level Boston Center
09:29AM 42.4778 -76.6717 82° East 479 551 37,000  Level Boston Center
09:31AM 42.4992 -76.4900 81° East 479 551 37,000  Level Boston Center
09:31AM 42.5139 -76.3078 84° East 479 551 37,000  Level Boston Center
09:32AM 42.5169 -76.1475 88° East 479 551 37,000  Level Boston Center
09:33AM 42.5208 -75.9644 88° East 479 551 37,000  Level Boston Center
09:34AM 42.5211 -75.7475 90° East 479 551 37,000  Level Boston Center
09:35AM 42.5264 -75.5619 88° East 479 551 37,000  Level Boston Center
09:36AM 42.5250 -75.3758 91° East 484 557 37,000  Level Boston Center
09:37AM 42.5275 -75.1928 89° East 484 557 37,000  Level Boston Center
09:38AM 42.5300 -75.0039 89° East 490 564 37,000  Level Boston Center
09:39AM 42.5297 -74.8208 90° East 490 564 37,000  Level Boston Center
09:41AM 42.5292 -74.6378 90° East 490 564 37,000  Level Boston Center
09:42AM 42.5306 -74.4544 89° East 490 564 37,000  Level Boston Center
09:42AM 42.5333 -74.2856 89° East 490 564 37,000  Level Boston Center
09:43AM 42.5325 -74.0800 90° East 496 571 37,000  Level Boston Center
09:44AM 42.5306 -73.9136 91° East 496 571 37,000  Level Boston Center
09:45AM 42.5308 -73.7022 90° East 503 579 37,000 -600 Level Boston Center
09:46AM 42.5286 -73.5333 91° East 497 572 35,900 -1,380 Descending Boston Center
09:47AM 42.5303 -73.3247 89° East 496 571 34,300 -1,560 Descending Boston Center
09:48AM 42.5297 -73.1331 90° East 496 571 32,800 -1,560 Descending Boston Center
09:49AM 42.5286 -72.9472 90° East 496 571 31,200 -2,040 Descending Boston Center
09:50AM 42.5250 -72.7556 91° East 496 571 28,800 -2,460 Descending Boston Center
09:52AM 42.5211 -72.5642 92° East 496 571 26,300 -2,880 Descending Boston Center
09:52AM 42.5192 -72.3808 91° East 491 565 23,000 -3,300 Descending Boston Center
09:53AM 42.5147 -72.2119 92° East 478 550 19,800 -3,540 Descending Boston Center
09:54AM 42.5122 -72.0486 91° East 444 511 16,000 -3,360 Descending Boston Center
09:56AM 42.5097 -71.9219 91° East 430 495 13,100 -2,640 Descending Boston Center
09:57AM 42.5067 -71.7558 91° East 375 432 10,200 -2,400 Descending Boston Center
09:58AM 42.5058 -71.6289 90° East 315 362 8,000 -2,040 Descending Boston Center
09:58AM 42.5167 -71.5833 72° East 305 351 7,600 -1,380 Descending KA90
09:59AM 42.5500 -71.4833 66° East 293 337 6,300 -1,080 Descending KA90
10:00AM 42.5833 -71.3833 66° East 272 313 5,600 -660 Descending KA90
10:01AM 42.5833 -71.3167 90° East 212 244 5,200 -540 Descending KA90
10:02AM 42.5500 -71.2667 132° Southeast 177 204 4,600 -780 Descending KA90
10:03AM 42.5167 -71.2167 132° Southeast 170 196 3,600 -780 Descending KA90
10:04AM 42.4833 -71.1667 132° Southeast 165 190 3,000 -540 Descending KA90
10:05AM 42.4500 -71.1333 144° Southeast 147 169 2,500 -660 Descending KA90
10:06AM 42.4333 -71.0833 114° Southeast 152 175 1,700 -840 Descending KA90
10:07AM 42.4000 -71.0500 144° Southeast 132 152 900 7,680 Descending KA90
10:09AM 42.3536 -70.9933 138° Southeast 129 148 24,000 7,980 Climbing Boston Center
10:10AM 42.3281 -70.9572 134° Southeast 129 148 24,000  Level Boston Center
10:12AM 42.3630 -71.0064 180° South  Level Estimated
10:19AM 42.3630 -71.0064 North  Level Estimated
10:20AM 42.3630 -71.0064 North  Level Estimated
10:21AM 42.3630 -71.0064 North  Level Estimated
10:22AM 42.3630 -71.0064 North  Level Estimated
10:23AM 42.3630 -71.0064 North  Level Estimated
10:24AM 42.3630 -71.0064 North  Level Estimated